AirNav   Air Wisconsin Up To $57,000 Bonus
 
 930 users online  

I83 Salem Municipal Airport
Salem, Indiana, USA

GOING TO SALEM?


FAA INFORMATION EFFECTIVE 03 NOVEMBER 2022

Location

FAA Identifier: I83
Lat/Long: 38-36-14.6725N 086-09-08.1058W
38-36.244542N 086-09.135097W
38.6040757,-86.1522516
(estimated)
Elevation: 839.9 ft. / 256 m (estimated)
Variation: 04W (2015)
From city: 2 miles W of SALEM, IN
Time zone: UTC -5 (UTC -4 during Daylight Saving Time)
Zip code: 47167

Airport Operations

Airport use: Open to the public
Control tower: no
ARTCC: INDIANAPOLIS CENTER
FSS: TERRE HAUTE FLIGHT SERVICE STATION
NOTAMs facility: HUF (NOTAM-D service available)
Attendance: IREG
Wind indicator: lighted
Segmented circle: no
Lights: ACTVT PAPI RWY 08; MIRL RWY 08/26 - CTAF. MIRL RWY 08/26 PRESET LOW INTST; INCR INTST - CTAF.

Airport Communications

CTAF/UNICOM: 123.0
WX AWOS-3 at BFR (20 nm NW): 119.125 (812-275-8306)
  • UNICOM NOT RGRLY MNTD.

Nearby radio navigation aids

VOR radial/distance  VOR name  Freq  Var
OOMr148/38.9HOOSIER VORTAC110.2002W

 
NDB name  Hdg/Dist  Freq  Var  ID
GODMAN351/39.639603WGOI --. --- ..

Airport Services

Fuel available: 100LL
100LL:FUEL AVBL H24 WITH CREDIT CARD.
Parking: buoy and tiedowns

Runway Information

Runway 8/26

Dimensions: 3000 x 75 ft. / 914 x 23 m
Surface: asphalt, in good condition
Weight bearing capacity: 
Single wheel: 30.0
Double wheel: 60.0
Runway edge lights: medium intensity
RUNWAY 8  RUNWAY 26
Latitude: 38-36.191155N38-36.297912N
Longitude: 086-09.442703W086-08.827420W
Elevation: 839.9 ft.816.4 ft.
Traffic pattern: leftleft
Markings: nonprecision, in good conditionnonprecision, in good condition
Visual slope indicator: 2-light PAPI on left (3.00 degrees glide path)
Runway end identifier lights: yesyes

Airport Ownership and Management from official FAA records

Ownership: Publicly-owned
Owner: SALEM BOARD OF AVN CMSNRS
334 N AIRPORT BLVD
SALEM, IN 47167
Phone (812) 883-5858
Manager: LOWELL DEPOY
334 N AIRPORT BLVD
SALEM, IN 47167
Phone (812) 896-4775

Airport Operational Statistics

Aircraft based on the field: 14
Single engine airplanes: 9
Multi engine airplanes: 1
Helicopters: 2
Ultralights: 2
    
Aircraft operations: avg 105/week *
73% local general aviation
27% transient general aviation
* for 12-month period ending 31 December 2019

Additional Remarks

FOR CD CTC LOUISVILLE APCH AT 502-375-7499

Instrument Procedures

There are no published instrument procedures at I83.

Some nearby airports with instrument procedures:

KBFR - Virgil I Grissom Municipal Airport (20 nm NW)
KSER - Freeman Municipal Airport (22 nm NE)
KFRH - French Lick Municipal Airport (23 nm W)
KJVY - Clark Regional Airport (24 nm SE)
KLOU - Bowman Field Airport (32 nm SE)
 
Loc | Ops | Rwys | IFR | FBO | Links
Com | Nav | Svcs | Stats | Notes
Area around I83 (Salem Municipal Airport)
 
Road maps at: MapQuest Bing Google
 
Aerial photo
WARNING: Photo may not be current or correct
Aerial photo of I83 (Salem Municipal Airport)
Photo by Phil Brooks
Photo taken 12-Sep-2019
looking west.

Do you have a better or more recent aerial photo of Salem Municipal Airport that you would like to share? If so, please send us your photo.

 
Sectional chart

 
Airport distance calculator
Flying to Salem Municipal Airport? Find the distance to fly.

From to I83

Sunrise and sunset
Times for 26-Nov-2022
 Local
(UTC-5)
 Zulu
(UTC)
Morning civil twilight07:1012:10
Sunrise07:3912:39
Sunset17:2422:24
Evening civil twilight17:5322:53

Current date and time
Zulu (UTC)  27-Nov-2022 03:25:05
Local (UTC-5)  26-Nov-2022 22:25:05
 
METAR
KBFR 
20nm NW 
270255Z AUTO 15005KT 7SM -RA SCT021 BKN035 OVC070 08/03 A2985 RMK AO2 P0002
KFRH 
23nm W 
270255Z AUTO 13006KT 5SM SCT038 BKN048 OVC100 A2984 RMK AO1
KJVY 
24nm SE 
270255Z AUTO 00000KT 5SM BKN009 OVC013 07/07 A2988 RMK AO2 P0004 PWINO
KSDF 
32nm SE 
270256Z 12003KT 6SM -RA SCT070 OVC095 10/07 A2987 RMK AO2 SLP117 P0004 60004 T01000072 56024
KLOU 
33nm SE 
270253Z AUTO 13003KT 6SM -RA BR BKN075 OVC090 10/08 A2988 RMK AO2 SLP118 P0004 60004 T01000078 56025
KIMS 
34nm E 
270255Z AUTO 13003KT 7SM -RA SCT080 OVC100 08/04 A2990 RMK AO2 P0001
KBMG 
39nm NW 
270253Z AUTO 13005KT 10SM OVC100 09/02 A2983 RMK AO2 RAB02E27 SLP105 P0000 60000 T00940022 58027
TAF
KSDF 
32nm SE 
261729Z 2618/2724 14005KT P6SM BKN250 FM270200 12005KT 6SM -RA BR SCT025 BKN050 FM270600 14011KT 4SM -SHRA BR BKN015 FM270900 16014G20KT 4SM -SHRA BR BKN015 WS020/18043KT FM271300 22024G30KT P6SM VCSH OVC025
KBMG 
39nm NW 
261720Z 2618/2718 17006KT P6SM SCT250 FM262200 14004KT P6SM OVC150 FM270400 12006KT 4SM SHRA BR OVC015 FM270600 12007KT 3SM SHRA BR OVC007 FM271000 15010KT 3SM SHRA BR OVC005 FM271400 22017G29KT 6SM -SHRA BR OVC009
NOTAMs
Click for the latest NOTAMs
NOTAMs are issued by the DoD/FAA and will open in a separate window not controlled by AirNav.

 

 
 

FBO, Fuel Providers, and Aircraft Ground Support

  
 Business Name 
 
 Contact 
 
 Services / Description 
 
Fuel Prices
 
Comments
  
Salem Municipal Airport 812-883-4265
812-883-4264
[web site]
[email]
Aviation fuel, Hangar leasing / sales, Public telephone, Internet access, Restrooms

More info about Salem Municipal Airport
independent
100LL
SS $7.29 
 Updated 18-Nov-2022
 
   write
SS=Self service
Update Fuel Prices
 

Would you like to see your business listed on this page?

 If your business provides an interesting product or service to pilots, flight crews, aircraft, or users of the Salem Municipal Airport, you should consider listing it here.  To start the listing process, click on the button below
 
Add a business
 

Other Pages about Salem Municipal Airport

cityofsalemin.com/...
 
Update a link
 
Copyright © AirNav, LLC. All rights reserved. Privacy Policy  Contact